When you browse on this site, cookies collect data to enhance your experience and personalize the content and advertising you see.
Visit our Privacy Policy to learn more. By continuing to use the site, you agree to this use of cookies and data.
  • Em Portugal
  • Lista de países
  • Para 7 dias
  • Temperatura da água
  • Mapas de satélite
  • Mapa do tempo
  • Widgets de tempo
  • user-avatar
    Iniciar Sessão

    Previsão horária em Tarpnowo

    Hoje, 27 Março, Quarta-feira

    Tempo Temperatura Precipitação Vento Pressão Humidade
    00:00 +1°C° 0 mm 2 m/s 763 mmHg 84%
    01:00 +1°C° 0 mm 2 m/s 763 mmHg 85%
    02:00 +1°C° 0 mm 2 m/s 764 mmHg 86%
    03:00 +1°C° 0 mm 2 m/s 764 mmHg 88%
    04:00 0°C° 0 mm 3 m/s 764 mmHg 89%
    05:00 0°C° 0 mm 3 m/s 764 mmHg 83%
    06:00 +1°C° 0 mm 3 m/s 764 mmHg 78%
    07:00 +1°C° 0 mm 3 m/s 765 mmHg 72%
    08:00 +1°C° 0 mm 4 m/s 765 mmHg 75%
    09:00 +4°C° 0 mm 4 m/s 765 mmHg 77%
    10:00 +5°C° 0 mm 4 m/s 765 mmHg 80%
    11:00 +5°C° 0.1 mm 4 m/s 765 mmHg 79%
    12:00 +6°C° 0.1 mm 5 m/s 765 mmHg 79%
    13:00 +6°C° 0.1 mm 5 m/s 765 mmHg 79%
    14:00 +6°C° 0.2 mm 4 m/s 765 mmHg 82%
    15:00 +6°C° 0.2 mm 4 m/s 764 mmHg 85%
    16:00 +6°C° 0.2 mm 4 m/s 764 mmHg 88%
    17:00 +6°C° 0.1 mm 4 m/s 764 mmHg 90%
    18:00 +5°C° 0.1 mm 4 m/s 764 mmHg 91%
    19:00 +5°C° 0.1 mm 4 m/s 764 mmHg 93%
    20:00 +5°C° 0.1 mm 3 m/s 765 mmHg 94%
    21:00 +5°C° 0.1 mm 3 m/s 765 mmHg 95%
    22:00 +5°C° 0.1 mm 3 m/s 765 mmHg 96%
    23:00 +5°C° 0.1 mm 3 m/s 765 mmHg 97%

    Amanhã, 28 Março, Quinta-feira

    Tempo Temperatura Precipitação Vento Pressão Humidade
    00:00 +6°C° 0.1 mm 2 m/s 765 mmHg 97%
    01:00 +6°C° 0.1 mm 2 m/s 765 mmHg 98%
    02:00 +5°C° 0 mm 2 m/s 766 mmHg 97%
    03:00 +5°C° 0 mm 2 m/s 766 mmHg 97%
    04:00 +4°C° 0 mm 2 m/s 766 mmHg 97%
    05:00 +6°C° 0 mm 1 m/s 767 mmHg 96%
    06:00 +6°C° 0 mm 1 m/s 767 mmHg 95%
    07:00 +6°C° 0 mm 1 m/s 767 mmHg 94%
    08:00 +8°C° 0 mm 1 m/s 768 mmHg 86%
    09:00 +9°C° 0 mm 1 m/s 768 mmHg 79%
    10:00 +11°C° 0 mm 1 m/s 769 mmHg 71%
    11:00 +12°C° 0 mm 1 m/s 769 mmHg 67%
    12:00 +13°C° 0 mm 2 m/s 769 mmHg 63%
    13:00 +13°C° 0 mm 2 m/s 769 mmHg 59%
    14:00 +13°C° 0 mm 2 m/s 769 mmHg 61%
    15:00 +13°C° 0 mm 2 m/s 769 mmHg 62%
    16:00 +12°C° 0 mm 3 m/s 769 mmHg 64%
    17:00 +10°C° 0 mm 3 m/s 769 mmHg 71%
    18:00 +9°C° 0 mm 2 m/s 769 mmHg 78%
    19:00 +7°C° 0 mm 2 m/s 769 mmHg 86%
    20:00 +6°C° 0 mm 2 m/s 769 mmHg 88%
    21:00 +6°C° 0 mm 2 m/s 770 mmHg 91%
    22:00 +6°C° 0 mm 2 m/s 770 mmHg 94%
    23:00 +6°C° 0 mm 2 m/s 770 mmHg 95%

    Depois de amanhã, 29 Março, Sexta-feira

    Tempo Temperatura Precipitação Vento Pressão Humidade
    00:00 +5°C° 0 mm 3 m/s 770 mmHg 95%
    01:00 +5°C° 0 mm 3 m/s 770 mmHg 96%
    02:00 +5°C° 0 mm 3 m/s 770 mmHg 96%
    03:00 +4°C° 0 mm 3 m/s 770 mmHg 97%
    04:00 +4°C° 0 mm 3 m/s 769 mmHg 97%
    05:00 +5°C° 0 mm 3 m/s 769 mmHg 97%
    06:00 +5°C° 0 mm 3 m/s 769 mmHg 96%
    07:00 +5°C° 0 mm 3 m/s 769 mmHg 96%
    08:00 +8°C° 0 mm 3 m/s 769 mmHg 89%
    09:00 +10°C° 0 mm 4 m/s 769 mmHg 82%
    10:00 +11°C° 0 mm 4 m/s 769 mmHg 75%
    11:00 +12°C° 0 mm 4 m/s 769 mmHg 70%
    12:00 +13°C° 0 mm 5 m/s 769 mmHg 65%
    13:00 +14°C° 0 mm 5 m/s 768 mmHg 60%
    14:00 +14°C° 0 mm 5 m/s 768 mmHg 61%
    15:00 +14°C° 0 mm 5 m/s 768 mmHg 62%
    16:00 +14°C° 0 mm 5 m/s 767 mmHg 62%
    17:00 +12°C° 0 mm 4 m/s 767 mmHg 70%
    18:00 +11°C° 0 mm 3 m/s 767 mmHg 77%
    19:00 +9°C° 0 mm 2 m/s 767 mmHg 84%
    20:00 +9°C° 0 mm 3 m/s 767 mmHg 86%
    21:00 +9°C° 0 mm 3 m/s 767 mmHg 88%
    22:00 +9°C° 0 mm 3 m/s 767 mmHg 89%
    23:00 +8°C° 0 mm 3 m/s 766 mmHg 90%

    30 Março, Sábado

    Tempo Temperatura Precipitação Vento Pressão Humidade
    00:00 +8°C° 0 mm 3 m/s 766 mmHg 91%
    01:00 +8°C° 0 mm 3 m/s 766 mmHg 92%
    02:00 +8°C° 0 mm 3 m/s 766 mmHg 93%
    03:00 +7°C° 0 mm 3 m/s 766 mmHg 94%
    04:00 +7°C° 0 mm 3 m/s 765 mmHg 95%
    05:00 +7°C° 0 mm 3 m/s 765 mmHg 94%
    06:00 +7°C° 0 mm 3 m/s 765 mmHg 93%
    07:00 +6°C° 0 mm 4 m/s 765 mmHg 92%
    08:00 +8°C° 0 mm 4 m/s 765 mmHg 84%
    09:00 +11°C° 0 mm 4 m/s 765 mmHg 77%
    10:00 +13°C° 0 mm 5 m/s 765 mmHg 69%
    11:00 +14°C° 0 mm 5 m/s 764 mmHg 66%
    12:00 +15°C° 0 mm 5 m/s 763 mmHg 63%
    13:00 +15°C° 0 mm 5 m/s 763 mmHg 61%
    14:00 +15°C° 0 mm 4 m/s 762 mmHg 61%
    15:00 +15°C° 0 mm 4 m/s 762 mmHg 61%
    16:00 +15°C° 0 mm 4 m/s 761 mmHg 61%
    17:00 +14°C° 0 mm 3 m/s 761 mmHg 66%
    18:00 +13°C° 0 mm 3 m/s 760 mmHg 72%
    19:00 +12°C° 0 mm 2 m/s 760 mmHg 77%
    20:00 +12°C° 0 mm 2 m/s 760 mmHg 79%
    21:00 +10°C° 0 mm 3 m/s 759 mmHg 80%
    22:00 +10°C° 0 mm 3 m/s 759 mmHg 82%
    23:00 +10°C° 0 mm 3 m/s 758 mmHg 82%

    31 Março, Domingo

    Tempo Temperatura Precipitação Vento Pressão Humidade
    00:00 +9°C° 0 mm 3 m/s 758 mmHg 83%
    01:00 +9°C° 0 mm 3 m/s 758 mmHg 83%
    02:00 +8°C° 0.1 mm 4 m/s 757 mmHg 85%
    03:00 +8°C° 0.1 mm 4 m/s 757 mmHg 86%
    04:00 +7°C° 0.1 mm 4 m/s 756 mmHg 87%
    05:00 +7°C° 0.1 mm 4 m/s 756 mmHg 87%
    06:00 +7°C° 0.1 mm 5 m/s 756 mmHg 87%
    07:00 +8°C° 0.1 mm 5 m/s 756 mmHg 87%
    08:00 +7°C° 0 mm 6 m/s 756 mmHg 84%
    09:00 +6°C° 0 mm 7 m/s 756 mmHg 81%
    10:00 +6°C° 0 mm 7 m/s 756 mmHg 79%
    11:00 +6°C° 0 mm 8 m/s 756 mmHg 72%
    12:00 +6°C° 0 mm 8 m/s 757 mmHg 65%
    13:00 +6°C° 0 mm 8 m/s 757 mmHg 58%
    14:00 +6°C° 0 mm 8 m/s 758 mmHg 61%
    15:00 +5°C° 0 mm 8 m/s 758 mmHg 63%
    16:00 +4°C° 0 mm 7 m/s 759 mmHg 65%
    17:00 +3°C° 0.1 mm 7 m/s 760 mmHg 68%
    18:00 +2°C° 0.1 mm 7 m/s 760 mmHg 71%
    19:00 +1°C° 0.1 mm 6 m/s 761 mmHg 74%
    20:00 +1°C° 0 mm 5 m/s 762 mmHg 73%
    21:00 0°C° 0 mm 4 m/s 762 mmHg 71%
    22:00 +1°C° 0 mm 3 m/s 763 mmHg 70%
    23:00 0°C° 0 mm 3 m/s 763 mmHg 72%

    1 Abril, Segunda-feira

    Tempo Temperatura Precipitação Vento Pressão Humidade
    00:00 +1°C° 0 mm 2 m/s 764 mmHg 73%
    01:00 +1°C° 0 mm 2 m/s 764 mmHg 75%
    02:00 +1°C° 0 mm 2 m/s 764 mmHg 75%
    03:00 +1°C° 0 mm 2 m/s 765 mmHg 75%
    04:00 -1°C° 0 mm 2 m/s 765 mmHg 76%
    05:00 +1°C° 0 mm 2 m/s 765 mmHg 73%
    06:00 +2°C° 0 mm 2 m/s 766 mmHg 70%
    07:00 +1°C° 0 mm 3 m/s 766 mmHg 68%
    08:00 +2°C° 0 mm 3 m/s 766 mmHg 61%
    09:00 +3°C° 0 mm 3 m/s 767 mmHg 55%
    10:00 +4°C° 0 mm 3 m/s 767 mmHg 49%
    11:00 +5°C° 0 mm 3 m/s 767 mmHg 47%
    12:00 +5°C° 0 mm 3 m/s 767 mmHg 45%
    13:00 +6°C° 0 mm 4 m/s 766 mmHg 42%
    14:00 +5°C° 0 mm 3 m/s 766 mmHg 43%
    15:00 +5°C° 0 mm 3 m/s 766 mmHg 44%
    16:00 +5°C° 0 mm 3 m/s 765 mmHg 45%
    17:00 +3°C° 0 mm 3 m/s 765 mmHg 51%
    18:00 +3°C° 0 mm 2 m/s 765 mmHg 56%
    19:00 +3°C° 0 mm 1 m/s 765 mmHg 62%
    20:00 +2°C° 0 mm 1 m/s 764 mmHg 63%
    21:00 +2°C° 0 mm 1 m/s 764 mmHg 65%
    22:00 +1°C° 0 mm 1 m/s 764 mmHg 66%
    23:00 +1°C° 0 mm 1 m/s 764 mmHg 67%
    Mostrar mais